Regional Weather Roundup
Issued by NWS

Home | Current Version | Previous Version | Graphics & Text | Print | Product List | Glossary On
Versions: 1 2 3 4 5 6 7 8 9 10 11 12 13 14 15 16 17 18 19 20 21 22 23 24 25 26 27 28 29 30 31 32 33 34 35 36 37 38 39 40 41 42 43 44 45 46 47 48 49 50
000
ASUS44 KMEG 041410
RWRTN
TENNESSEE HOURLY STATE WEATHER ROUNDUP
NATIONAL WEATHER SERVICE MEMPHIS TN
900 AM CDT WED MAY 04 2016

TNZ002-004-019-021-049-052-054-088>092-041500-
WEST TENNESSEE

CITY           SKY/WX    TMP DP  RH WIND       PRES   REMARKS
MEMPHIS INTL   PTSUNNY   62  48  60 W8        29.89F
NWS MEMPHIS      N/A     61 N/A N/A MISG        N/A
JACKSON        MOSUNNY   61  49  64 W12       29.85F
DYERSBURG      MOSUNNY   61  48  63 W10       29.83F
UNION CITY     SUNNY     61  52  72 SW7       29.79F
LEXINGTON      SUNNY     61  52  72 W7        29.84F
$$

TNZ008-025-027-028-033-062-065-066-041500-
NORTH MIDDLE TENNESSEE

CITY           SKY/WX    TMP DP  RH WIND       PRES   REMARKS
NASHVILLE      SUNNY     61  47  59 W9        29.83F
CLARKSVILLE    SUNNY     59  49  69 SW8       29.80F
SMYRNA         SUNNY     61  48  62 W10       29.84F
COOKEVILLE     SUNNY     57  52  82 SW3       29.83F
CROSSVILLE     MOSUNNY   55  44  66 W8        29.84F
$$

TNZ061-075-076-078-094-096-097-041500-
SOUTH MIDDLE TENNESSEE

CITY           SKY/WX    TMP DP  RH WIND       PRES   REMARKS
FAYETTEVILLE   SUNNY     59  50  72 VRB5      29.87S
TULLAHOMA      SUNNY     57  50  77 NW7       29.86F
WINCHESTER     SUNNY     57  48  72 VRB6      29.87S
MCMINNVILLE    SUNNY     57  50  77 VRB5      29.85S
COLUMBIA       SUNNY     61  61 100 VRB6      29.83F
SHELBYVILLE    SUNNY     61  52  72 W6        29.86F
$$

TNZ017-018-042-046-047-041500-
NORTHEAST TENNESSEE

CITY           SKY/WX    TMP DP  RH WIND       PRES   REMARKS
TRI CITIES     PTSUNNY   56  44  64 NW6       29.78F
$$

TNZ012-013-036-069-073-074-041500-
CENTRAL EAST TENNESSEE

CITY           SKY/WX    TMP DP  RH WIND       PRES   REMARKS
KNOXVILLE      MOSUNNY   58  44  60 VRB5      29.82F
OAK RIDGE      SUNNY     60  44  55 VRB3      29.83F
GATLINBURG     SUNNY     59  45  58 SW8       29.82S
MORRISTOWN     CLOUDY    55  46  71 W8        29.81S
$$

TNZ083-085-099-041500-
SOUTHEAST TENNESSEE

CITY           SKY/WX    TMP DP  RH WIND       PRES   REMARKS
CHATTANOOGA    MOSUNNY   60  45  57 VRB5      29.85F
$$

SKY/WX REPORTED AS FAIR MEANS FEW OR NO CLOUDS BELOW
12 THOUSAND FEET.




USA.gov is the U.S. government's official web portal to all federal, state and local government web resources and services.